Météo par heure à Shkodёr

Ce jour, 1 Octobre, Jeudi

Heure Température Précipitation Vent Pression Humidité
00:00 +13°C° 0 mm 1 m/s 736 mmHg 83%
01:00 +13°C° 0 mm 1 m/s 736 mmHg 82%
02:00 +13°C° 0 mm 1 m/s 736 mmHg 82%
03:00 +13°C° 0 mm 1 m/s 736 mmHg 82%
04:00 +13°C° 0 mm 1 m/s 736 mmHg 81%
05:00 +14°C° 0 mm 1 m/s 736 mmHg 80%
06:00 +15°C° 0 mm 1 m/s 736 mmHg 80%
07:00 +15°C° 0 mm 1 m/s 736 mmHg 77%
08:00 +16°C° 0 mm 1 m/s 735 mmHg 74%
09:00 +18°C° 0 mm 2 m/s 735 mmHg 71%
10:00 +19°C° 0 mm 2 m/s 735 mmHg 67%
11:00 +19°C° 0.1 mm 2 m/s 735 mmHg 67%
12:00 +19°C° 0.1 mm 3 m/s 735 mmHg 66%
13:00 +20°C° 0.1 mm 3 m/s 735 mmHg 66%
14:00 +19°C° 0.2 mm 3 m/s 735 mmHg 68%
15:00 +19°C° 0.2 mm 2 m/s 734 mmHg 71%
16:00 +19°C° 0.2 mm 2 m/s 734 mmHg 73%
17:00 +18°C° 0 mm 2 m/s 734 mmHg 77%
18:00 +16°C° 0 mm 1 m/s 735 mmHg 81%
19:00 +15°C° 0 mm 1 m/s 735 mmHg 85%
20:00 +15°C° 0 mm 1 m/s 735 mmHg 85%
21:00 +15°C° 0 mm 1 m/s 736 mmHg 84%
22:00 +15°C° 0 mm 1 m/s 736 mmHg 84%
23:00 +15°C° 0 mm 1 m/s 736 mmHg 83%

Demain, 2 Octobre, Vendredi

Heure Température Précipitation Vent Pression Humidité
00:00 +15°C° 0 mm 1 m/s 736 mmHg 81%
01:00 +16°C° 0 mm 1 m/s 736 mmHg 80%
02:00 +15°C° 0 mm 1 m/s 736 mmHg 80%
03:00 +15°C° 0 mm 1 m/s 736 mmHg 79%
04:00 +14°C° 0 mm 1 m/s 735 mmHg 79%
05:00 +15°C° 0 mm 1 m/s 736 mmHg 78%
06:00 +16°C° 0 mm 1 m/s 736 mmHg 76%
07:00 +18°C° 0 mm 1 m/s 736 mmHg 75%
08:00 +20°C° 0 mm 1 m/s 736 mmHg 69%
09:00 +21°C° 0 mm 1 m/s 736 mmHg 64%
10:00 +23°C° 0 mm 1 m/s 736 mmHg 58%
11:00 +24°C° 0 mm 1 m/s 736 mmHg 57%
12:00 +24°C° 0 mm 2 m/s 736 mmHg 56%
13:00 +25°C° 0 mm 2 m/s 736 mmHg 55%
14:00 +24°C° 0 mm 2 m/s 736 mmHg 58%
15:00 +24°C° 0 mm 2 m/s 736 mmHg 61%
16:00 +23°C° 0 mm 1 m/s 736 mmHg 64%
17:00 +22°C° 0.1 mm 1 m/s 736 mmHg 69%
18:00 +21°C° 0.1 mm 1 m/s 736 mmHg 73%
19:00 +20°C° 0.1 mm 1 m/s 737 mmHg 78%
20:00 +20°C° 0.1 mm 1 m/s 737 mmHg 79%
21:00 +20°C° 0.1 mm 1 m/s 737 mmHg 80%
22:00 +19°C° 0.1 mm 1 m/s 737 mmHg 81%
23:00 +19°C° 0.1 mm 1 m/s 737 mmHg 82%

Après-demain, 3 Octobre, Samedi

Heure Température Précipitation Vent Pression Humidité
00:00 +20°C° 0.1 mm 1 m/s 737 mmHg 83%
01:00 +20°C° 0.1 mm 1 m/s 737 mmHg 83%
02:00 +20°C° 0 mm 1 m/s 737 mmHg 83%
03:00 +20°C° 0 mm 1 m/s 737 mmHg 82%
04:00 +20°C° 0 mm 1 m/s 737 mmHg 81%
05:00 +20°C° 0 mm 1 m/s 738 mmHg 80%
06:00 +21°C° 0 mm 1 m/s 738 mmHg 78%
07:00 +21°C° 0 mm 1 m/s 738 mmHg 77%
08:00 +23°C° 0 mm 1 m/s 738 mmHg 70%
09:00 +25°C° 0 mm 1 m/s 738 mmHg 63%
10:00 +26°C° 0 mm 1 m/s 738 mmHg 56%
11:00 +27°C° 0 mm 1 m/s 738 mmHg 52%
12:00 +28°C° 0 mm 1 m/s 737 mmHg 49%
13:00 +29°C° 0 mm 1 m/s 737 mmHg 46%
14:00 +28°C° 0 mm 1 m/s 737 mmHg 50%
15:00 +28°C° 0 mm 2 m/s 737 mmHg 53%
16:00 +27°C° 0 mm 2 m/s 737 mmHg 57%
17:00 +26°C° 0 mm 2 m/s 737 mmHg 62%
18:00 +24°C° 0 mm 2 m/s 737 mmHg 67%
19:00 +21°C° 0 mm 2 m/s 737 mmHg 73%
20:00 +21°C° 0 mm 2 m/s 737 mmHg 69%
21:00 +23°C° 0 mm 2 m/s 737 mmHg 64%
22:00 +23°C° 0 mm 2 m/s 737 mmHg 60%
23:00 +23°C° 0 mm 2 m/s 737 mmHg 59%

4 Octobre, Dimanche

Heure Température Précipitation Vent Pression Humidité
00:00 +23°C° 0 mm 2 m/s 736 mmHg 58%
01:00 +23°C° 0 mm 2 m/s 736 mmHg 57%
02:00 +23°C° 0 mm 2 m/s 736 mmHg 57%
03:00 +23°C° 0 mm 2 m/s 736 mmHg 58%
04:00 +23°C° 0 mm 2 m/s 736 mmHg 58%
05:00 +23°C° 0.1 mm 2 m/s 736 mmHg 62%
06:00 +23°C° 0.1 mm 1 m/s 737 mmHg 66%
07:00 +23°C° 0.1 mm 1 m/s 737 mmHg 70%
08:00 +25°C° 0.1 mm 1 m/s 737 mmHg 66%
09:00 +26°C° 0.1 mm 1 m/s 737 mmHg 61%
10:00 +28°C° 0.1 mm 1 m/s 737 mmHg 56%
11:00 +28°C° 0 mm 2 m/s 737 mmHg 54%
12:00 +29°C° 0 mm 3 m/s 736 mmHg 52%
13:00 +29°C° 0 mm 3 m/s 736 mmHg 49%
14:00 +28°C° 0.3 mm 3 m/s 736 mmHg 57%
15:00 +27°C° 0.3 mm 3 m/s 736 mmHg 64%
16:00 +26°C° 0.3 mm 2 m/s 736 mmHg 72%
17:00 +25°C° 1.1 mm 2 m/s 736 mmHg 77%
18:00 +24°C° 1.1 mm 2 m/s 737 mmHg 82%
19:00 +23°C° 1.1 mm 2 m/s 737 mmHg 87%
20:00 +23°C° 0.5 mm 1 m/s 737 mmHg 86%
21:00 +23°C° 0.5 mm 1 m/s 737 mmHg 85%
22:00 +23°C° 0.5 mm 1 m/s 738 mmHg 85%
23:00 +23°C° 0.7 mm 2 m/s 737 mmHg 84%

5 Octobre, Lundi

Heure Température Précipitation Vent Pression Humidité
00:00 +22°C° 0.7 mm 3 m/s 737 mmHg 83%
01:00 +22°C° 0.7 mm 3 m/s 737 mmHg 82%
02:00 +22°C° 0.1 mm 3 m/s 737 mmHg 80%
03:00 +22°C° 0.1 mm 3 m/s 737 mmHg 77%
04:00 +23°C° 0.1 mm 2 m/s 737 mmHg 75%
05:00 +23°C° 0 mm 2 m/s 736 mmHg 73%
06:00 +23°C° 0 mm 2 m/s 736 mmHg 72%
07:00 +23°C° 0 mm 2 m/s 736 mmHg 70%
08:00 +25°C° 0.1 mm 2 m/s 736 mmHg 65%
09:00 +26°C° 0.1 mm 1 m/s 736 mmHg 60%
10:00 +28°C° 0.1 mm 1 m/s 736 mmHg 55%
11:00 +28°C° 0.2 mm 1 m/s 736 mmHg 54%
12:00 +28°C° 0.2 mm 2 m/s 736 mmHg 54%
13:00 +28°C° 0.2 mm 2 m/s 736 mmHg 53%
14:00 +27°C° 1.5 mm 2 m/s 736 mmHg 62%
15:00 +26°C° 1.5 mm 2 m/s 735 mmHg 71%
16:00 +24°C° 1.5 mm 1 m/s 735 mmHg 80%
17:00 +24°C° 3.4 mm 1 m/s 736 mmHg 84%
18:00 +23°C° 3.4 mm 1 m/s 736 mmHg 88%
19:00 +22°C° 3.4 mm 1 m/s 736 mmHg 93%
20:00 +21°C° 3.8 mm 2 m/s 737 mmHg 93%
21:00 +21°C° 3.8 mm 2 m/s 737 mmHg 93%
22:00 +21°C° 3.8 mm 2 m/s 737 mmHg 93%
23:00 +21°C° 4.5 mm 2 m/s 737 mmHg 93%

6 Octobre, Mardi

Heure Température Précipitation Vent Pression Humidité
00:00 +20°C° 4.5 mm 2 m/s 737 mmHg 94%
01:00 +20°C° 4.5 mm 2 m/s 736 mmHg 94%
02:00 +20°C° 3.9 mm 3 m/s 736 mmHg 93%
03:00 +20°C° 3.9 mm 3 m/s 736 mmHg 92%
04:00 +20°C° 3.9 mm 3 m/s 736 mmHg 91%
05:00 +19°C° 7.9 mm 3 m/s 736 mmHg 91%
06:00 +19°C° 7.9 mm 2 m/s 736 mmHg 91%
07:00 +18°C° 7.9 mm 2 m/s 736 mmHg 92%
08:00 +18°C° 1.7 mm 2 m/s 737 mmHg 91%
09:00 +18°C° 1.7 mm 2 m/s 737 mmHg 90%
10:00 +18°C° 1.7 mm 2 m/s 737 mmHg 90%
11:00 +19°C° 1.5 mm 2 m/s 737 mmHg 86%
12:00 +19°C° 1.5 mm 2 m/s 737 mmHg 82%
13:00 +21°C° 1.5 mm 1 m/s 737 mmHg 78%
14:00 +21°C° 0.7 mm 1 m/s 737 mmHg 77%
15:00 +21°C° 0.7 mm 1 m/s 737 mmHg 77%
16:00 +21°C° 0.7 mm 1 m/s 737 mmHg 77%
17:00 +20°C° 0.2 mm 1 m/s 737 mmHg 79%
18:00 +19°C° 0.2 mm 1 m/s 737 mmHg 81%
19:00 +16°C° 0.2 mm 0 m/s 737 mmHg 82%
20:00 +18°C° 0 mm 1 m/s 737 mmHg 82%
21:00 +16°C° 0 mm 1 m/s 737 mmHg 81%
22:00 +16°C° 0 mm 1 m/s 737 mmHg 81%
23:00 +16°C° 0 mm 1 m/s 737 mmHg 81%
Voir plus

We Need Your Consent

Meteoprog and our Service Providers may store and access personal data such as cookies, device identifiers or other similar technologies on your device and process such data to personalise content and ads, as well as provide social media features and to analyse the traffic.

  • Store and/or access information on your device

    Cookies, device identifiers or other information can be stored or accessed on your device for the purposes indicated above.

  • Personalised ads and content, ad and content measurement, audience insights, and products development

    Ads and content can be personalised based on a profile. More data can be added to better personalise ads and content. Ad and content performance can be measured. Insights about the audience who saw the ads and content can be derived. Such data can be used to develop or improve user’s experience, systems and software.

By clicking ‘I Agree’ you will allow the use of indicated cookies, device identifiers, web beacons or other similar technologies. Your settings can be changed in the browser on your device.

For certain purposes, legitimate interests may be relied on, rather than consent. You can read more about this in our Privacy and Cookie Policy.